Content
SEND FEEDBACK

Daily
Averages
Monthly
Summary
United States of America

VERNONIA, OREGON


Home > North America > United States > Oregon
Elevation: 740 feet     Latitude: 45 52N     Longitude: 123 12W

WEATHER
 
SELECT A DAY
Number of Records: 260,046;   Date Range: 1/1/95 - 7/29/14
 
SHARE

PRINT THIS DATA

[ ← Previous Day ]
WEATHER ALMANAC - FEBRUARY 13, 2013
[ Next Day → ]
[ °C ]   °F
Weather ElementAverageHighLow
Temperature45.7 °F51.8 °F (1:35 pm)35.6 °F (11:55 pm)
Dewpoint39.4 °F44.6 °F (12:35 am)32 °F (11:55 pm)
Humidity79.2 %93 % (12:35 am)58 % (2:15 pm)
Barometer30.47 in30.53 in (11:15 pm)30.41 in (3:15 am)
Wind Speed2.9 mph9.2 mph (3:55 am)
Weather ElementAverage
Visibility9.7 mi
Wind DirectionESE (127.5 °)

Weather ElementTotal
Precipitation0.03 in
Heating Degree Days21.3 (Base 65)
Averaged from 71 records on February 13, 2013
WEATHER CONDITIONS BREAKOUT
WIND DIRECTION BREAKOUT
WEATHER BY HOUR - FEBRUARY 13, 2013
[ °C ]   °F
Local TimeTemperatureDewpointHumidityBarometerVisibilityWind DirectionWind SpeedGust SpeedPrecipitationEventsConditions
12:35 AM46.4 °F44.6 °F93 %30.43 in10.0 miSE (140°)3.5 mphOvercast
12:55 AM46.4 °F44.6 °F93 %30.43 in10.0 miSSE (150°)4.6 mphOvercast
1:15 AM48.2 °F44.6 °F87 %30.43 in10.0 miSE (130°)3.5 mphOvercast
1:35 AM48.2 °F44.6 °F87 %30.42 in10.0 miSSE (160°)4.6 mphOvercast
1:55 AM46.4 °F42.8 °F87 %30.42 in10.0 miSE (140°)5.8 mphOvercast
2:15 AM46.4 °F44.6 °F93 %30.43 in10.0 miSE (130°)5.8 mph0.01 inOvercast
2:35 AM46.4 °F44.6 °F93 %30.42 in10.0 miSE (140°)6.9 mph0.01 inOvercast
2:55 AM46.4 °F44.6 °F93 %30.42 in10.0 miSE (140°)4.6 mph0.01 inOvercast
3:15 AM46.4 °F44.6 °F93 %30.41 in10.0 miSE (140°)5.8 mphOvercast
3:35 AM46.4 °F42.8 °F87 %30.42 in10.0 miSSE (160°)5.8 mphOvercast
3:55 AM46.4 °F42.8 °F87 %30.41 in10.0 miSE (140°)9.2 mphOvercast
4:15 AM46.4 °F42.8 °F87 %30.41 in10.0 miSE (140°)8.1 mphOvercast
4:35 AM46.4 °F42.8 °F87 %30.41 in10.0 miSE (140°)8.1 mphOvercast
4:55 AM46.4 °F42.8 °F87 %30.41 in10.0 miSE (140°)6.9 mphOvercast
5:15 AM46.4 °F42.8 °F87 %30.41 in10.0 miSSE (150°)4.6 mphOvercast
5:35 AM46.4 °F42.8 °F87 %30.42 in8.0 miSW (230°)5.8 mphOvercast
5:55 AM46.4 °F42.8 °F87 %30.43 in4.0 miWest (270°)3.5 mphOvercast
6:15 AM46.4 °F42.8 °F87 %30.43 in10.0 miCalmOvercast
6:35 AM46.4 °F42.8 °F87 %30.44 in10.0 miWest (270°)3.5 mphOvercast
6:55 AM46.4 °F41.0 °F81 %30.44 in10.0 miCalmOvercast
7:15 AM46.4 °F41.0 °F81 %30.45 in10.0 miWNW (290°)3.5 mphOvercast
7:35 AM44.6 °F41.0 °F87 %30.45 in10.0 miCalmOvercast
7:55 AM44.6 °F41.0 °F87 %30.46 in10.0 miCalmOvercast
8:15 AM46.4 °F41.0 °F81 %30.46 in10.0 miCalmOvercast
8:35 AM46.4 °F42.8 °F87 %30.47 in10.0 miCalmOvercast
8:55 AM46.4 °F41.0 °F81 %30.47 in10.0 miCalmOvercast
9:15 AM46.4 °F41.0 °F81 %30.48 in10.0 miCalmOvercast
9:35 AM46.4 °F39.2 °F76 %30.48 in10.0 miCalmOvercast
9:55 AM46.4 °F39.2 °F76 %30.49 in10.0 miCalmOvercast
10:15 AM46.4 °F39.2 °F76 %30.49 in10.0 miCalmOvercast
10:35 AM46.4 °F39.2 °F76 %30.49 in10.0 miCalmOvercast
10:55 AM48.2 °F39.2 °F71 %30.49 in10.0 miWSW (250°)3.5 mphOvercast
11:15 AM48.2 °F39.2 °F71 %30.49 in10.0 miCalmMostly Cloudy
11:35 AM48.2 °F39.2 °F71 %30.49 in10.0 miCalmOvercast
11:55 AM48.2 °F39.2 °F71 %30.48 in10.0 miWest (280°)4.6 mphOvercast
12:15 PM48.2 °F39.2 °F71 %30.48 in10.0 miWest (280°)4.6 mphOvercast
12:35 PM48.2 °F39.2 °F71 %30.48 in10.0 miWNW (290°)4.6 mphOvercast
12:55 PM48.2 °F39.2 °F71 %30.48 in10.0 miWest (270°)8.1 mphOvercast
1:15 PM50.0 °F39.2 °F66 %30.47 in10.0 miWest (280°)5.8 mphOvercast
1:35 PM51.8 °F39.2 °F62 %30.47 in10.0 miNW (310°)8.1 mphMostly Cloudy
1:55 PM51.8 °F39.2 °F62 %30.46 in10.0 miNW (320°)5.8 mphMostly Cloudy
2:15 PM51.8 °F37.4 °F58 %30.45 in10.0 miWest (280°)4.6 mphOvercast
2:35 PM51.8 °F37.4 °F58 %30.45 in10.0 miWNW (300°)4.6 mphOvercast
2:55 PM51.8 °F37.4 °F58 %30.46 in10.0 miWNW (300°)3.5 mphOvercast
3:15 PM50.0 °F37.4 °F62 %30.46 in10.0 miNW (310°)4.6 mphOvercast
3:35 PM50.0 °F39.2 °F66 %30.47 in10.0 miNW (320°)5.8 mphOvercast
3:55 PM50.0 °F39.2 °F66 %30.47 in10.0 miNW (320°)5.8 mphOvercast
4:15 PM50.0 °F37.4 °F62 %30.46 in10.0 miNW (310°)4.6 mphOvercast
4:35 PM50.0 °F37.4 °F62 %30.46 in10.0 miWNW (290°)4.6 mphOvercast
4:55 PM48.2 °F37.4 °F66 %30.46 in10.0 miNW (310°)4.6 mphOvercast
5:15 PM48.2 °F37.4 °F66 %30.47 in10.0 miWNW (300°)5.8 mphOvercast
5:35 PM48.2 °F37.4 °F66 %30.48 in10.0 miWest (270°)3.5 mphOvercast
5:55 PM46.4 °F37.4 °F71 %30.48 in10.0 miCalmOvercast
6:15 PM46.4 °F37.4 °F71 %30.48 in10.0 miWest (260°)3.5 mphMostly Cloudy
6:35 PM46.4 °F37.4 °F71 %30.48 in10.0 miCalmMostly Cloudy
6:55 PM44.6 °F37.4 °F76 %30.48 in10.0 miCalmMostly Cloudy
7:15 PM44.6 °F37.4 °F76 %30.48 in8.0 miCalmClear
7:35 PM42.8 °F37.4 °F81 %30.49 in7.0 miCalmClear
7:55 PM42.8 °F35.6 °F76 %30.50 in8.0 miCalmClear
8:15 PM39.2 °F35.6 °F87 %30.50 in8.0 miCalmClear
8:35 PM39.2 °F35.6 °F87 %30.50 in6.0 miCalmClear
8:55 PM39.2 °F35.6 °F87 %30.50 in8.0 miCalmClear
9:15 PM39.2 °F35.6 °F87 %30.51 in10.0 miCalmClear
9:35 PM37.4 °F33.8 °F87 %30.51 in10.0 miCalmClear
9:55 PM37.4 °F33.8 °F87 %30.52 in10.0 miCalmClear
10:15 PM37.4 °F33.8 °F87 %30.52 in10.0 miCalmMostly Cloudy
10:35 PM37.4 °F35.6 °F93 %30.52 in10.0 miCalmOvercast
10:55 PM37.4 °F35.6 °F93 %30.52 in10.0 miCalmOvercast
11:15 PM37.4 °F35.6 °F93 %30.53 in10.0 miCalmOvercast
11:35 PM37.4 °F33.8 °F87 %30.52 in10.0 miCalmScattered Clouds
11:55 PM35.6 °F32.0 °F87 %30.53 in10.0 miCalmClear
Hourly data recorded from KKLS, located miles away from Vernonia, Oregon







STORIES FROM OUR PARTNERS